Temperature
16 16 16 16 14 12 14 15 16 17 17 18 17 17 15 15 16 15 14 14 14 14 14 13 13 13 13 13 14 14 14 14 14 14 14 14 14 14 14 14 14 14 14 14 14 13 14 14 14
15 16 16 16 13 13 14 15 16 17 17 18 17 16 15 14 14 14 14 13 14 14 14 13 13 13 13 13 13 14 14 14 14 14 14 14 13 13 13 13 13 13 13 14 13 13 13 14 14
15 15 16 12 12 13 15 16 15 16 17 17 16 15 14 14 14 14 14 14 14 14 13 13 13 13 13 13 13 13 13 13 14 14 13 13 13 13 13 13 13 13 13 13 13 13 13 13 13
15 15 15 12 13 14 15 15 15 16 17 17 15 14 13 14 14 14 14 14 14 13 13 13 13 13 13 13 13 13 13 13 13 13 13 13 13 13 13 13 13 13 13 13 13 13 13 13 13
15 15 12 12 13 14 14 15 16 15 15 16 15 13 13 13 13 14 14 13 13 13 13 13 13 13 13 13 13 13 13 13 13 13 13 13 13 13 13 13 13 13 13 13 13 13 13 13 13
15 12 11 12 13 14 14 16 15 14 15 15 14 13 12 13 13 13 13 13 13 13 13 13 12 13 13 13 13 13 12 12 12 12 13 13 13 13 13 13 13 13 13 13 13 13 13 13 13
13 11 12 13 13 14 14 15 15 14 14 15 15 12 12 12 13 13 13 13 13 13 12 12 12 12 12 12 12 12 12 12 12 12 12 12 12 12 12 12 12 12 12 12 12 12 12 12 12
14 11 13 12 13 14 14 15 15 14 14 14 15 12 12 12 12 12 12 12 12 12 12 12 12 12 12 12 12 12 12 12 12 12 12 12 12 12 12 12 12 12 12 12 12 12 12 12 12
14 10 11 12 13 13 13 13 14 14 14 14 14 13 13 13 12 12 12 12 12 12 12 12 12 11 11 11 11 11 11 11 11 11 11 11 12 12 12 12 12 12 12 11 11 11 12 12 12
12 10 11 12 13 12 12 13 13 13 12 12 13 13 13 12 12 12 12 12 12 12 11 11 11 11 11 11 11 11 11 11 11 11 11 11 11 11 11 11 11 11 11 11 11 11 11 11 11
11 10 11 12 13 12 12 12 12 12 11 12 12 13 12 12 12 12 12 12 12 11 11 11 11 11 11 11 11 11 10 10 10 10 10 10 10 11 11 11 11 11 11 11 11 11 11 11 11
11 11 12 12 12 12 12 12 11 11 12 13 13 13 12 12 12 12 12 11 11 11 11 11 11 10 10 10 10 10 10 10 10 10 10 10 10 10 10 10 10 10 10 10 10 10 10 10 10
10 11 11 11 12 11 11 11 11 11 12 12 12 12 12 12 12 12 11 11 11 11 11 11 10 10 10 10 10 10 10 10 10 10 9 9 10 10 10 10 10 10 10 10 10 10 10 10 10
10 10 10 11 11 11 10 10 10 11 12 12 12 11 11 11 11 11 11 11 11 11 11 10 10 10 10 10 10 9 9 9 9 9 9 9 9 9 9 9 9 10 10 9 9 9 9 9 9
11 10 9 10 10 10 10 9 9 11 11 11 11 11 11 11 11 11 11 11 10 10 10 10 10 9 9 9 9 9 9 9 9 9 9 9 9 9 9 9 9 9 9 9 9 9 9 9 9
10 9 8 10 10 10 10 9 9 11 11 10 10 10 10 10 10 10 10 10 10 10 10 10 9 9 9 9 8 8 9 8 8 8 8 8 8 8 8 8 9 9 8 8 8 8 8 8 8
8 8 8 9 9 9 9 8 8 10 10 9 9 10 10 10 10 10 10 10 10 9 9 9 9 9 8 8 8 8 8 8 8 8 8 8 8 8 8 8 8 8 8 8 8 8 8 8 8
8 7 8 8 9 9 8 7 8 9 9 9 9 9 9 9 9 9 9 9 9 9 9 8 8 8 8 8 7 7 8 8 8 8 8 8 8 8 8 8 8 8 8 8 7 7 7 7 7
8 8 8 8 9 8 7 7 8 8 8 7 8 8 8 9 9 9 9 9 8 8 8 8 8 8 7 7 7 7 7 7 7 7 7 7 7 7 7 7 7 7 7 7 7 7 7 7 7
8 8 7 8 8 8 7 7 7 7 7 8 8 8 8 8 8 8 8 8 8 8 8 8 7 7 7 7 7 7 7 7 7 7 7 7 7 7 7 7 6 6 6 6 6 6 6 6 6
7 7 7 7 7 7 6 6 6 7 7 8 8 8 8 8 8 8 8 8 8 8 7 7 7 7 7 7 6 6 6 6 6 6 6 6 6 6 6 6 6 6 6 6 6 6 6 6 6
7 8 7 7 6 5 6 5 6 6 6 6 7 7 7 8 8 8 8 7 7 7 7 7 7 7 7 6 6 6 6 6 6 6 6 6 6 6 6 5 5 5 5 5 5 5 5 5 5
7 7 7 6 5 5 5 5 6 6 6 6 6 7 7 7 7 7 7 7 7 7 7 6 6 6 6 6 6 5 5 6 5 5 5 5 5 5 5 5 5 5 5 5 5 5 4 4 4
7 6 6 4 4 5 5 5 5 5 6 7 6 7 7 7 7 7 7 7 7 7 6 6 6 6 6 5 5 5 5 5 5 5 5 4 4 4 4 4 4 4 4 4 4 4 4 4 4
6 5 5 5 4 5 5 5 5 6 6 7 6 7 7 7 7 6 6 6 6 6 6 6 5 5 5 5 5 5 5 5 5 4 4 4 4 4 4 4 4 4 4 4 4 3 4 4 3
5 5 5 5 4 4 4 4 6 6 6 7 7 7 7 6 6 6 6 6 6 6 6 5 5 5 5 5 4 4 4 4 4 4 4 3 3 3 3 3 3 3 3 3 3 3 3 3 3
5 4 5 4 3 4 4 4 5 6 6 6 6 6 6 6 6 6 6 6 6 5 5 5 5 5 4 4 4 4 4 4 4 4 3 3 3 3 3 3 3 3 3 3 3 3 3 3 2
6 4 3 3 4 4 4 4 5 6 5 5 4 5 5 6 6 6 6 5 5 5 5 5 4 4 4 4 3 3 3 3 3 3 3 3 3 3 3 3 3 3 2 2 2 3 2 2 2
5 4 4 3 3 4 4 5 6 5 5 4 4 5 5 5 5 5 5 5 5 5 4 4 4 4 4 3 3 3 3 3 3 3 3 3 3 3 2 2 2 2 2 2 2 2 2 2 2
5 4 3 3 3 2 3 4 6 5 5 4 4 5 5 5 5 5 5 5 4 4 4 4 4 4 3 3 3 2 2 2 2 3 2 2 2 2 2 2 2 2 2 2 2 2 2 1 1
Wind_Speed
9 7 2 4 5 4 3 5 3 1 0 1 2 7 8 5 3 4 3 5 9 9 10 11 12 11 10 9 9 8 8 8 8 8 8 8 8 8 8 8 8 8 8 7 6 7 7 7 7
5 2 4 5 4 2 5 5 4 4 3 2 3 5 6 4 3 6 3 6 10 11 10 10 11 10 10 9 9 8 7 7 7 7 7 7 7 7 7 7 7 7 7 7 6 6 6 7 7
4 1 4 4 4 6 5 4 5 3 1 1 3 4 4 4 4 5 5 9 11 10 10 10 11 10 9 9 8 8 7 7 7 6 6 6 6 6 6 6 6 6 6 6 5 5 5 5 5
3 4 4 3 4 5 5 4 3 2 1 3 4 4 3 1 4 5 8 11 11 9 9 10 11 9 9 8 8 7 6 6 6 6 6 6 5 5 5 5 5 5 5 5 4 4 4 4 4
3 4 3 1 5 4 3 3 2 2 1 1 4 4 1 4 5 10 10 10 10 8 8 9 10 9 8 8 7 6 5 6 6 5 5 4 4 4 4 4 4 4 4 4 4 3 3 3 4
4 4 3 4 5 3 3 2 1 1 1 1 4 4 2 1 7 8 9 9 9 8 8 8 9 8 8 7 6 5 5 5 4 4 4 4 3 3 3 3 3 3 3 4 4 3 2 2 3
4 4 4 4 3 3 3 2 1 1 1 1 4 6 2 2 5 7 8 8 8 8 7 6 7 7 7 6 5 5 5 4 4 3 3 3 3 3 2 2 2 3 3 3 3 3 2 2 3
4 4 2 2 3 3 2 2 1 1 1 1 3 7 5 5 5 7 8 7 7 6 5 5 5 5 4 5 5 4 4 3 3 3 2 3 3 2 2 2 2 2 3 3 3 2 2 3 3
3 3 3 3 3 2 2 2 3 2 2 2 2 3 5 8 8 8 6 5 4 4 3 4 3 3 3 4 4 4 3 2 2 2 2 2 2 2 1 1 1 2 3 3 4 3 3 3 3
4 3 5 3 2 2 1 1 1 2 2 2 2 3 6 8 8 8 6 6 5 4 3 3 3 3 3 3 3 3 2 1 1 1 1 1 1 1 1 1 1 2 3 3 4 4 4 4 3
3 5 3 2 1 1 1 2 1 2 2 4 4 5 6 7 6 6 6 6 5 5 4 3 4 3 3 2 2 2 2 1 1 1 1 1 1 1 1 2 2 2 2 3 4 4 4 3 2
2 2 2 2 0 0 1 1 2 3 6 4 4 7 7 7 7 7 7 6 5 4 4 4 3 3 3 2 1 2 2 2 1 1 1 1 1 1 0 0 1 1 1 2 2 2 3 3 3
2 2 1 1 1 1 1 2 3 5 5 2 3 4 6 7 6 6 6 5 5 5 5 4 4 4 3 2 2 2 2 3 3 2 2 2 1 1 1 1 1 1 1 1 2 2 3 3 3
2 1 2 2 2 2 2 4 2 6 2 2 3 4 5 6 6 4 4 5 5 6 6 5 4 4 3 2 2 2 2 2 2 2 2 3 2 2 1 1 1 1 1 1 1 2 2 2 2
1 1 4 3 3 2 1 5 5 6 2 2 3 4 5 4 4 5 6 6 6 5 5 4 4 4 3 3 2 2 2 2 2 2 2 2 2 2 2 1 1 1 2 1 1 2 2 2 2
2 2 2 4 2 2 3 7 6 3 3 4 4 4 4 4 4 4 5 4 4 4 3 3 3 3 3 3 2 2 2 2 1 2 2 2 2 2 2 1 2 2 1 0 1 1 1 2 2
1 1 3 4 2 2 4 7 6 3 4 6 6 5 4 4 3 4 4 5 4 4 4 3 2 3 3 2 2 2 1 2 1 1 2 2 2 2 2 1 2 1 1 1 1 1 1 2 2
4 4 4 5 3 2 4 10 10 5 5 8 7 6 5 5 6 5 5 5 4 4 4 3 2 2 2 2 1 1 0 0 1 1 2 2 1 1 2 1 1 1 1 1 1 1 1 1 2
4 4 6 6 3 3 7 11 13 9 6 7 7 6 6 7 6 4 4 4 4 3 4 3 3 2 2 2 1 1 1 1 1 2 2 2 2 1 1 1 1 1 1 2 2 2 1 1 1
3 4 6 6 3 3 6 11 11 8 7 7 8 7 7 5 4 3 4 4 4 5 4 4 4 3 3 3 3 2 1 1 1 2 2 2 2 2 1 1 1 1 1 1 2 1 1 1 0
5 6 5 5 5 3 3 8 6 5 4 4 5 5 5 6 6 5 4 4 4 5 5 4 4 4 3 3 1 1 1 1 0 1 1 2 2 2 2 2 2 1 1 2 3 2 2 2 1
6 5 5 3 2 4 1 5 7 5 5 5 5 5 5 5 5 5 4 4 5 6 5 5 4 4 3 3 3 3 2 2 2 2 2 2 2 3 2 2 2 2 2 2 3 2 2 2 2
5 2 3 3 2 3 3 4 8 3 5 7 6 6 6 5 5 5 5 5 5 5 5 4 4 3 3 3 4 4 3 2 1 1 2 2 2 2 2 2 2 2 2 3 3 3 3 3 3
1 2 2 2 2 4 5 6 8 5 7 6 6 6 6 6 5 5 4 4 3 3 3 4 4 3 3 3 4 4 4 3 2 2 2 2 2 2 2 2 2 3 2 3 3 3 3 3 3
2 3 3 3 2 6 3 5 9 8 7 7 6 6 6 5 5 4 4 4 3 3 3 4 4 4 3 3 3 4 4 4 5 4 3 3 2 2 3 2 2 3 3 3 2 3 3 3 3
3 5 5 4 5 5 2 6 8 6 5 4 4 4 4 4 4 5 5 5 5 5 4 4 5 4 3 3 3 3 3 3 3 4 3 3 3 3 3 3 3 3 3 3 2 3 3 3 3
4 3 4 3 2 4 6 6 8 3 3 2 2 1 3 4 4 5 4 5 5 5 5 5 5 5 4 4 3 3 3 3 3 3 3 3 3 2 3 3 3 3 3 3 2 3 3 3 3
4 5 4 3 3 5 6 6 5 5 6 4 3 4 4 4 3 4 4 5 5 5 5 4 5 5 5 4 4 3 3 3 3 2 3 2 3 2 3 3 3 3 3 2 2 2 3 3 3
4 3 3 3 4 4 4 7 5 6 6 5 5 5 4 4 4 4 4 4 4 4 4 4 4 4 4 4 4 3 3 3 3 3 3 3 3 3 3 3 3 3 3 2 2 2 3 4 4
5 6 6 4 5 5 4 8 5 4 4 3 4 5 4 5 4 4 3 3 3 3 4 4 4 4 4 4 4 4 3 3 3 3 3 3 3 3 3 3 3 3 3 2 3 3 3 4 4
Wind_Direction
337 344 48 56 61 63 228 244 233 243 242 321 78 102 111 108 131 156 153 146 133 134 138 141 139 132 125 118 111 105 100 94 90 86 83 80 79 75 70 66 64 66 64 69 73 76 74 71 66
345 6 56 65 104 176 252 243 224 229 207 156 77 88 91 92 93 117 131 142 131 130 133 138 139 134 127 120 114 109 103 96 94 90 85 82 78 76 72 68 63 63 63 64 69 73 76 71 66
343 66 85 87 146 194 223 227 207 226 292 129 73 53 100 131 133 148 154 135 122 119 127 137 139 136 129 122 115 110 104 98 94 90 86 81 78 75 71 69 64 59 58 59 63 69 73 70 64
54 53 63 97 212 228 216 222 196 175 5 51 101 68 60 55 155 144 132 125 123 118 122 136 139 137 131 125 120 114 106 101 97 91 87 81 80 74 68 65 63 58 53 52 60 63 63 61 53
64 83 88 199 239 254 244 240 186 169 185 60 109 113 75 358 102 117 124 124 128 125 123 133 139 136 131 127 123 118 112 106 99 94 87 81 78 73 69 66 64 60 50 42 47 58 55 53 42
62 78 119 214 239 262 281 277 182 153 179 83 113 124 144 69 113 125 125 124 125 128 123 132 139 138 134 128 124 119 115 109 101 95 89 82 78 75 72 70 66 60 51 44 43 45 41 42 31
112 117 180 205 223 258 271 313 134 142 150 224 145 130 150 181 150 129 121 118 119 123 119 118 130 137 138 135 130 124 115 110 104 97 87 76 82 80 77 70 66 55 45 36 25 21 15 21 21
132 120 190 223 213 244 302 13 44 95 234 328 120 144 183 200 157 121 112 113 117 119 123 124 119 124 135 140 141 132 119 109 102 95 85 76 75 78 72 65 61 56 36 21 12 5 5 5 11
98 96 208 225 203 234 328 24 352 5 70 30 57 158 174 146 129 114 108 104 119 128 131 136 129 121 131 146 151 144 136 122 96 86 94 77 51 47 47 52 60 42 21 13 8 4 355 353 360
97 163 214 231 207 204 301 318 298 20 11 359 22 59 111 127 132 136 145 154 158 159 160 150 148 144 137 146 144 136 134 118 94 83 91 84 76 55 34 35 32 18 6 4 360 358 355 352 360
143 190 208 259 237 189 245 299 298 159 256 227 206 167 145 142 149 160 172 175 177 169 162 165 161 154 145 140 147 141 145 146 138 137 142 107 79 55 27 17 0 358 1 6 352 355 355 352 350
155 237 210 250 294 164 211 238 287 228 231 220 188 165 157 163 174 183 186 179 168 161 166 173 163 156 159 149 161 162 158 167 178 200 197 151 95 56 56 46 333 352 356 358 351 343 335 333 326
205 243 285 257 308 285 267 242 240 261 251 207 148 149 177 183 193 195 187 177 168 174 178 178 171 169 165 157 172 162 181 188 194 194 202 185 165 203 221 233 253 291 314 328 328 330 321 320 322
205 231 281 278 271 266 234 274 245 262 230 158 157 177 191 194 195 189 182 187 190 186 186 183 175 171 161 164 173 175 192 204 203 202 211 210 198 201 212 237 262 278 270 275 280 292 299 299 306
77 356 325 270 222 216 141 293 241 248 186 194 210 207 198 201 186 190 195 191 192 190 187 185 180 162 162 169 177 168 178 186 194 206 212 205 198 197 199 213 245 271 264 268 295 307 314 303 300
42 39 303 282 193 185 156 260 268 248 185 220 230 227 214 214 199 194 185 181 176 167 172 185 182 169 174 179 185 184 180 180 207 208 200 198 197 189 180 208 248 261 258 263 250 275 298 299 290
39 248 250 283 228 178 190 252 270 255 205 229 234 233 221 217 216 207 190 184 175 168 169 180 183 182 191 185 185 188 185 184 206 222 216 209 197 184 175 217 254 255 264 265 265 304 269 281 286
221 228 243 248 262 216 242 260 273 264 237 238 241 234 219 218 225 212 195 185 176 171 169 177 178 184 186 173 149 132 124 222 219 221 225 219 208 186 177 216 250 247 264 279 273 271 278 258 271
193 207 249 259 258 255 249 262 271 269 255 247 241 235 227 230 232 209 195 185 173 172 174 180 173 180 169 164 172 182 224 247 248 237 219 215 210 191 189 221 257 235 239 255 257 257 266 291 298
223 246 264 285 297 261 267 274 272 261 243 229 226 229 226 230 237 217 199 184 181 188 190 186 187 190 192 193 195 200 197 226 235 255 235 218 209 204 214 207 225 227 246 280 274 249 233 267 265
241 227 239 260 319 320 304 298 273 270 249 240 230 217 214 210 213 209 201 196 193 200 203 201 203 202 203 191 157 97 69 34 316 290 257 247 230 224 229 231 236 231 212 235 254 234 213 223 251
251 230 232 252 305 286 240 284 281 263 269 249 241 225 220 219 210 205 199 199 204 212 210 203 201 202 201 182 173 174 188 220 236 246 250 263 249 238 238 241 241 242 226 227 243 237 225 204 224
230 260 248 235 208 280 241 230 280 269 258 252 244 235 228 220 214 210 202 201 207 213 208 203 196 197 195 185 186 189 207 223 238 248 257 257 260 250 246 243 241 241 231 228 229 220 213 207 206
184 24 25 50 98 270 228 200 272 241 232 250 245 241 236 230 226 220 209 195 204 207 205 198 192 200 196 188 188 195 206 206 206 229 243 253 263 264 256 252 247 244 238 233 221 212 206 204 206
94 87 13 348 331 254 218 208 250 246 235 231 238 243 244 227 215 215 212 208 207 203 204 202 195 203 201 196 200 206 210 207 209 219 227 236 248 263 257 264 256 252 246 240 220 212 218 208 206
185 157 173 218 239 276 270 235 254 260 259 253 247 243 240 224 213 216 215 207 208 212 208 204 204 207 202 202 214 214 216 219 229 227 229 234 236 241 250 254 251 252 247 246 228 218 221 215 213
153 194 180 161 245 272 267 276 295 263 292 295 287 255 240 232 220 220 220 213 211 210 210 205 206 209 207 209 217 214 214 218 229 228 232 242 241 243 244 249 250 248 249 240 224 218 222 222 223
164 156 125 157 209 257 276 260 249 265 274 281 274 257 253 253 243 231 221 218 219 212 207 201 205 206 204 205 214 221 219 222 225 218 228 245 248 243 241 247 248 243 246 243 227 240 226 221 230
168 168 173 180 190 198 263 268 229 226 242 243 250 253 249 239 239 236 232 223 218 205 196 199 208 207 203 205 210 215 222 222 223 223 230 240 244 235 232 236 240 238 239 239 235 242 234 226 234
194 190 172 190 230 207 228 267 267 242 254 246 261 274 267 248 243 233 224 214 204 199 204 206 209 208 210 207 207 215 221 220 226 234 236 241 242 234 234 232 236 240 238 233 233 242 243 233 230
Height
1501 1502 1504 1506 1510 1519 1518 1510 1503 1500 1499 1498 1497 1497 1499 1503 1507 1514 1511 1510 1512 1514 1516 1517 1518 1519 1520 1520 1521 1521 1521 1522 1522 1522 1522 1521 1521 1521 1521 1521 1521 1521 1521 1520 1521 1521 1520 1520 1520
1501 1503 1505 1506 1515 1523 1517 1506 1502 1499 1498 1498 1498 1498 1500 1503 1505 1507 1508 1509 1512 1513 1515 1516 1517 1518 1519 1520 1520 1521 1521 1521 1521 1521 1521 1521 1521 1521 1520 1520 1520 1520 1520 1520 1520 1520 1520 1520 1519
1501 1502 1505 1508 1515 1518 1510 1501 1499 1497 1497 1497 1499 1500 1501 1504 1505 1506 1507 1509 1511 1513 1515 1516 1517 1518 1518 1519 1520 1520 1520 1520 1520 1520 1520 1520 1520 1520 1520 1520 1519 1519 1519 1519 1519 1519 1519 1519 1519
1501 1503 1505 1511 1512 1508 1503 1499 1497 1497 1497 1497 1498 1502 1503 1505 1505 1506 1507 1509 1511 1512 1514 1515 1516 1517 1518 1518 1519 1519 1519 1519 1519 1519 1519 1519 1519 1519 1519 1519 1518 1518 1518 1518 1518 1518 1518 1518 1518
1501 1502 1508 1513 1509 1504 1499 1497 1497 1497 1497 1498 1498 1501 1504 1505 1505 1506 1507 1509 1510 1512 1513 1514 1515 1516 1517 1517 1518 1518 1518 1518 1518 1518 1518 1518 1518 1518 1518 1518 1517 1517 1517 1517 1517 1517 1517 1517 1517
1501 1502 1513 1515 1508 1502 1498 1497 1497 1497 1498 1498 1499 1501 1504 1505 1505 1506 1507 1508 1510 1511 1513 1514 1515 1515 1516 1516 1517 1517 1517 1517 1517 1517 1517 1517 1517 1517 1516 1516 1516 1516 1516 1516 1516 1516 1516 1516 1515
1501 1505 1509 1508 1506 1502 1499 1497 1497 1497 1498 1498 1498 1501 1503 1504 1505 1506 1507 1508 1509 1511 1512 1513 1514 1514 1515 1515 1515 1516 1516 1516 1516 1516 1516 1516 1515 1515 1515 1515 1515 1515 1515 1515 1515 1514 1514 1514 1514
1499 1504 1506 1506 1504 1502 1499 1498 1497 1497 1498 1498 1498 1499 1501 1503 1504 1505 1506 1507 1508 1510 1511 1511 1512 1513 1513 1514 1514 1514 1514 1514 1514 1514 1514 1514 1514 1514 1514 1514 1514 1513 1513 1513 1513 1513 1513 1512 1512
1499 1507 1509 1505 1502 1501 1498 1498 1498 1498 1498 1497 1498 1498 1499 1501 1503 1504 1505 1506 1507 1508 1509 1510 1511 1511 1512 1512 1512 1513 1513 1513 1513 1513 1512 1512 1512 1512 1512 1512 1512 1511 1511 1511 1511 1511 1511 1511 1510
1499 1507 1504 1500 1499 1499 1498 1498 1498 1498 1498 1497 1497 1498 1498 1500 1501 1502 1503 1504 1504 1505 1507 1508 1509 1509 1510 1510 1510 1510 1511 1511 1511 1511 1511 1510 1510 1510 1510 1510 1510 1510 1509 1509 1509 1509 1509 1509 1508
1498 1502 1500 1498 1498 1497 1498 1498 1498 1498 1498 1496 1496 1496 1497 1498 1499 1501 1502 1502 1503 1504 1505 1506 1507 1507 1508 1508 1508 1508 1508 1508 1508 1508 1508 1508 1508 1508 1508 1508 1508 1507 1507 1507 1507 1507 1506 1506 1506
1499 1498 1498 1497 1497 1497 1497 1497 1497 1496 1495 1495 1495 1495 1495 1496 1497 1499 1500 1501 1502 1502 1503 1504 1505 1505 1505 1506 1506 1505 1505 1505 1505 1506 1506 1506 1506 1506 1506 1505 1505 1505 1505 1505 1504 1504 1504 1504 1503
1498 1498 1497 1496 1496 1496 1496 1496 1496 1494 1493 1493 1494 1494 1494 1495 1496 1497 1498 1499 1500 1500 1501 1502 1502 1503 1503 1503 1503 1503 1502 1503 1503 1503 1503 1503 1503 1503 1503 1503 1503 1503 1502 1502 1502 1501 1501 1501 1501
1497 1497 1497 1496 1495 1495 1496 1495 1495 1490 1491 1491 1492 1492 1492 1493 1494 1494 1495 1496 1497 1498 1498 1499 1499 1500 1500 1500 1500 1500 1500 1500 1500 1500 1500 1500 1500 1500 1500 1500 1500 1500 1499 1499 1499 1499 1498 1498 1498
1497 1498 1497 1495 1494 1495 1496 1495 1492 1489 1490 1489 1490 1490 1490 1491 1491 1492 1492 1493 1494 1495 1496 1496 1497 1497 1497 1497 1497 1497 1497 1497 1497 1497 1497 1497 1497 1497 1497 1497 1497 1497 1496 1496 1496 1495 1495 1495 1494
1498 1501 1502 1496 1494 1494 1498 1496 1489 1488 1488 1487 1487 1488 1488 1488 1489 1489 1490 1491 1491 1492 1492 1493 1494 1494 1494 1494 1494 1494 1494 1494 1494 1494 1494 1494 1494 1494 1494 1494 1494 1493 1493 1493 1492 1492 1491 1491 1491
1502 1505 1503 1497 1493 1494 1496 1494 1487 1486 1486 1485 1485 1485 1485 1485 1486 1486 1487 1488 1488 1489 1489 1490 1490 1491 1491 1491 1491 1491 1491 1491 1491 1491 1491 1491 1491 1491 1491 1490 1490 1490 1490 1489 1489 1489 1488 1488 1487
1503 1504 1501 1498 1493 1494 1495 1491 1485 1484 1484 1482 1482 1481 1481 1481 1482 1483 1484 1485 1485 1486 1486 1487 1487 1487 1488 1488 1488 1488 1488 1488 1488 1488 1488 1487 1487 1487 1487 1487 1486 1486 1486 1486 1485 1485 1485 1484 1484
1497 1500 1499 1495 1492 1493 1492 1488 1482 1480 1480 1479 1478 1477 1477 1478 1479 1480 1481 1481 1482 1482 1483 1483 1483 1484 1484 1484 1484 1484 1484 1484 1484 1484 1484 1484 1484 1484 1484 1483 1483 1482 1482 1482 1482 1482 1481 1481 1481
1496 1498 1497 1494 1491 1492 1491 1486 1479 1477 1475 1474 1473 1473 1473 1474 1475 1476 1477 1478 1478 1478 1479 1479 1480 1480 1480 1480 1481 1481 1481 1480 1480 1481 1481 1481 1480 1480 1480 1479 1479 1478 1478 1478 1478 1478 1477 1477 1477
1495 1497 1496 1495 1493 1491 1492 1486 1479 1473 1471 1471 1470 1470 1470 1471 1471 1472 1473 1474 1474 1475 1475 1475 1476 1476 1477 1477 1478 1477 1477 1477 1477 1476 1476 1477 1477 1476 1476 1476 1475 1475 1474 1474 1474 1474 1473 1473 1474
1494 1491 1492 1493 1498 1500 1496 1496 1478 1473 1470 1468 1467 1467 1467 1468 1468 1469 1469 1470 1471 1471 1472 1472 1472 1473 1473 1474 1474 1473 1473 1472 1472 1473 1473 1473 1473 1472 1472 1472 1471 1471 1470 1470 1470 1470 1469 1470 1469
1490 1489 1491 1493 1497 1500 1497 1498 1481 1473 1470 1465 1463 1462 1463 1464 1465 1465 1466 1467 1467 1468 1468 1468 1469 1469 1469 1470 1470 1470 1470 1469 1470 1469 1469 1469 1469 1468 1468 1468 1467 1467 1466 1466 1466 1466 1466 1466 1466
1488 1491 1493 1496 1500 1501 1493 1496 1482 1473 1465 1461 1459 1459 1459 1460 1461 1462 1463 1464 1464 1465 1465 1465 1465 1465 1466 1466 1466 1466 1466 1466 1466 1465 1465 1465 1465 1464 1464 1464 1463 1463 1462 1462 1461 1462 1462 1462 1462
1490 1496 1502 1503 1505 1498 1489 1489 1477 1461 1458 1457 1456 1456 1456 1457 1458 1458 1459 1460 1460 1461 1461 1461 1462 1461 1462 1462 1462 1462 1462 1462 1462 1462 1461 1461 1461 1460 1460 1460 1459 1458 1458 1458 1457 1458 1458 1459 1459
1489 1493 1501 1502 1503 1496 1489 1485 1468 1458 1455 1454 1454 1454 1454 1454 1455 1455 1455 1456 1457 1457 1458 1458 1458 1458 1458 1458 1458 1459 1459 1458 1458 1458 1458 1458 1457 1457 1456 1456 1455 1455 1454 1454 1454 1454 1454 1455 1455
1488 1492 1492 1499 1502 1500 1489 1480 1465 1455 1455 1453 1453 1452 1451 1451 1452 1452 1452 1453 1453 1453 1454 1454 1454 1454 1454 1454 1455 1455 1455 1455 1454 1454 1454 1454 1454 1453 1453 1453 1452 1451 1451 1450 1450 1450 1451 1451 1452
1485 1488 1495 1498 1498 1495 1485 1480 1469 1457 1455 1453 1452 1451 1450 1450 1449 1449 1449 1449 1449 1450 1450 1450 1450 1450 1450 1451 1451 1451 1451 1451 1451 1451 1451 1450 1450 1450 1450 1449 1448 1448 1447 1447 1447 1447 1447 1448 1448
1486 1488 1489 1494 1495 1494 1490 1474 1456 1454 1452 1452 1450 1449 1448 1447 1447 1446 1446 1446 1446 1446 1446 1447 1447 1447 1447 1447 1447 1448 1447 1447 1447 1447 1447 1447 1447 1446 1446 1446 1445 1445 1444 1444 1443 1443 1443 1444 1444
1480 1482 1486 1491 1491 1492 1489 1473 1451 1450 1449 1448 1447 1447 1446 1445 1445 1444 1443 1443 1443 1443 1443 1443 1443 1443 1443 1444 1444 1444 1444 1444 1444 1444 1444 1444 1443 1443 1443 1443 1442 1441 1441 1440 1440 1440 1439 1439 1440